Вернуться в каталог

STARLINK-32898

АктивенСвязьVLEO
NORAD 62998·PAYLOAD·🇺🇸 United States

Запущен Feb 11, 2025 с Cape Canaveral Space Force Station

Loading…

Ближайшие Пролёты (ближайшие 24 часа)

TLE

СвежийSource: CelesTrak SupGP

Эпоха: Sep 14, 2026, 22:47 UTC

1 62998C 25031T   26257.94979167 -.00022880  00000+0 -82846-3 0  2578
2 62998  43.0002 154.7312 0001610 259.1688 236.0353 15.27599545    10

Отслеживайте STARLINK-32898 в реальном времени с AllMySat

Download on the App Store